Cherokee, IA

6:20 PM CST on November 22, 2017 (GMT -0600)
Cherokee Municipal

Weather History for KCKP - October, 2013

Change the Weather History Date:

Friday, October 11, 2013

  Actual Average Record
Temperature  
Mean Temperature 66 °F -  
Max Temperature 78 °F 63 °F 88 °F (1956)
Min Temperature 53 °F 36 °F 17 °F (1987)
Growing Degree Days 16 (Base 50)    
Moisture  
Dew Point 50 °F    
Average Humidity 60    
Maximum Humidity 78    
Minimum Humidity 21    
Precipitation  
Precipitation 0.00 in - - ()
Sea Level Pressure  
Sea Level Pressure 29.71 in    
Wind  
Wind Speed 13 mph (South)    
Max Wind Speed 29 mph    
Max Gust Speed 37 mph    
Visibility 10 miles    
Events Rain    
Averages and records for this station are not official NWS values.
T = Trace of Precipitation, MM = Missing Value Source: NWS Daily Summary

Daily Weather History Graph

Daily Weather History Graph

Search for Another Location

Airport or City:

Trip Planner

Search our weather history database for the weather conditions in past years. The results will help you decide how hot, cold, wet, or windy it might be!

Date:

Astronomy

Oct. 11, 2013 Rise Set
Actual Time 7:31 AM CDT 6:45 PM CDT
Civil Twilight 7:02 AM CDT 7:14 PM CDT
Nautical Twilight 6:30 AM CDT 7:46 PM CDT
Astronomical Twilight 5:57 AM CDT 8:19 PM CDT
Moon 2:18 PM CDT (10/11) No Moon Set
Length of Visible Light 12h 11m
Length of Day
11h 14m
Waxing Crescent, 47% of the Moon is Illuminated
Oct 11
Waxing Crescent
Oct 11
First Quarter
Oct 18
Full
Oct 26
Last Quarter
Nov 3
New

Hourly Weather History & Observations

Time (CDT) Temp. Dew Point Humidity Pressure Visibility Wind Dir Wind Speed Gust Speed Precip Events Conditions
12:15 AM 64.4 °F 49.3 °F 58% 29.80 in 10.0 mi SSE 12.7 mph - N/A   Clear
12:35 AM 64.4 °F 49.3 °F 58% 29.80 in 10.0 mi SSE 9.2 mph - N/A   Clear
12:55 AM 64.4 °F 49.1 °F 58% 29.80 in 10.0 mi SSE 11.5 mph 18.4 mph N/A   Clear
1:15 AM 63.7 °F 49.3 °F 59% 29.80 in 10.0 mi SSE 13.8 mph - N/A   Clear
1:55 AM 62.8 °F 49.3 °F 61% 29.80 in 10.0 mi South 10.4 mph - N/A   Clear
2:15 AM 62.6 °F 49.3 °F 62% 29.80 in 10.0 mi SSE 11.5 mph 17.3 mph N/A   Clear
2:35 AM 61.9 °F 49.6 °F 64% 29.80 in 10.0 mi SSE 10.4 mph - N/A   Clear
2:55 AM 61.0 °F 50.2 °F 68% 29.81 in 10.0 mi South 9.2 mph - N/A   Clear
3:15 AM 60.8 °F 50.9 °F 70% 29.80 in 10.0 mi SSE 10.4 mph - N/A   Clear
3:35 AM 60.8 °F 50.9 °F 70% 29.79 in 10.0 mi SSE 8.1 mph - N/A   Clear
3:55 AM 59.9 °F 51.3 °F 73% 29.78 in 10.0 mi SSE 5.8 mph - N/A   Clear
4:15 AM 60.4 °F 51.8 °F 73% 29.77 in 10.0 mi SSE 6.9 mph - N/A   Clear
4:35 AM 61.0 °F 52.0 °F 72% 29.76 in 10.0 mi South 8.1 mph - N/A   Clear
4:55 AM 61.3 °F 52.3 °F 72% 29.75 in 10.0 mi South 9.2 mph - N/A   Clear
5:15 AM 62.6 °F 52.7 °F 70% 29.75 in 10.0 mi SSE 13.8 mph 19.6 mph N/A   Clear
5:35 AM 62.6 °F 52.9 °F 70% 29.74 in 10.0 mi SSE 13.8 mph 19.6 mph N/A   Clear
5:55 AM 61.9 °F 52.9 °F 72% 29.73 in 10.0 mi SSE 13.8 mph 20.7 mph N/A   Clear
6:15 AM 61.5 °F 52.9 °F 73% 29.72 in 10.0 mi SSE 13.8 mph 19.6 mph N/A   Clear
6:35 AM 60.8 °F 52.9 °F 75% 29.71 in 10.0 mi SSE 10.4 mph - N/A   Clear
6:55 AM 59.9 °F 52.9 °F 78% 29.72 in 10.0 mi SSE 8.1 mph 16.1 mph N/A   Clear
7:15 AM 59.9 °F 52.9 °F 78% 29.71 in 10.0 mi SSE 9.2 mph 17.3 mph N/A   Clear
7:35 AM 59.7 °F 52.9 °F 78% 29.71 in 10.0 mi SE 6.9 mph 16.1 mph N/A   Clear
7:55 AM 59.9 °F 53.1 °F 78% 29.69 in 10.0 mi SE 11.5 mph 17.3 mph N/A   Clear
8:15 AM 60.1 °F 53.2 °F 78% 29.67 in 10.0 mi SE 9.2 mph - N/A   Clear
8:35 AM 60.8 °F 53.8 °F 78% 29.71 in 10.0 mi South 15.0 mph 21.9 mph N/A   Clear
8:55 AM 61.7 °F 54.0 °F 76% 29.68 in 10.0 mi SSE 12.7 mph 21.9 mph N/A   Scattered Clouds
9:15 AM 62.1 °F 54.5 °F 76% 29.69 in 10.0 mi SSE 12.7 mph 20.7 mph N/A Rain Light Rain
9:35 AM 63.0 °F 55.2 °F 76% 29.70 in 10.0 mi South 12.7 mph 16.1 mph N/A   Mostly Cloudy
9:55 AM 63.5 °F 55.2 °F 74% 29.69 in 10.0 mi SSE 11.5 mph 23.0 mph N/A Rain Light Rain
10:15 AM 63.7 °F 56.1 °F 76% 29.68 in 10.0 mi SSE 13.8 mph 18.4 mph N/A   Overcast
10:35 AM 64.8 °F 56.1 °F 74% 29.68 in 10.0 mi South 13.8 mph 24.2 mph N/A   Overcast
10:55 AM 65.3 °F 56.3 °F 73% 29.67 in 10.0 mi SSE 17.3 mph 24.2 mph N/A   Overcast
11:15 AM 64.9 °F 57.2 °F 76% 29.67 in 10.0 mi South 17.3 mph 28.8 mph N/A Rain Light Rain
11:35 AM 65.5 °F 57.6 °F 76% 29.66 in 10.0 mi South 17.3 mph 27.6 mph N/A   Overcast
11:55 AM 66.2 °F 57.6 °F 74% 29.66 in 10.0 mi South 17.3 mph 23.0 mph N/A   Overcast
12:15 PM 67.3 °F 57.4 °F 70% 29.66 in 10.0 mi South 20.7 mph 31.1 mph N/A   Overcast
12:35 PM 67.8 °F 57.6 °F 70% 29.65 in 10.0 mi South 20.7 mph 25.3 mph N/A   Overcast
12:55 PM 68.0 °F 57.6 °F 69% 29.63 in 10.0 mi South 19.6 mph 27.6 mph N/A   Overcast
1:15 PM 69.3 °F 57.9 °F 67% 29.62 in 10.0 mi SSE 23.0 mph 29.9 mph N/A   Overcast
1:35 PM 72.3 °F 57.9 °F 60% 29.60 in 10.0 mi South 23.0 mph 31.1 mph N/A   Scattered Clouds
1:55 PM 72.5 °F 57.0 °F 58% 29.61 in 10.0 mi South 23.0 mph 32.2 mph N/A   Scattered Clouds
2:15 PM 73.2 °F 56.1 °F 55% 29.60 in 10.0 mi South 20.7 mph 35.7 mph N/A   Mostly Cloudy
2:35 PM 74.3 °F 54.1 °F 49% 29.60 in 10.0 mi South 28.8 mph 36.8 mph N/A   Scattered Clouds
2:55 PM 74.3 °F 54.1 °F 49% 29.60 in 10.0 mi South 24.2 mph 34.5 mph N/A   Scattered Clouds
3:15 PM 75.9 °F 52.9 °F 45% 29.59 in 10.0 mi South 25.3 mph 32.2 mph N/A   Scattered Clouds
3:35 PM 76.6 °F 51.8 °F 42% 29.60 in 10.0 mi South 21.9 mph 34.5 mph N/A   Clear
3:55 PM 76.3 °F 50.2 °F 40% 29.60 in 10.0 mi South 25.3 mph 33.4 mph N/A   Scattered Clouds
4:15 PM 76.3 °F 50.9 °F 41% 29.60 in 10.0 mi South 23.0 mph 33.4 mph N/A   Mostly Cloudy
4:35 PM 76.5 °F 50.7 °F 40% 29.60 in 10.0 mi South 18.4 mph 32.2 mph N/A   Mostly Cloudy
4:55 PM 77.0 °F 51.6 °F 41% 29.60 in 10.0 mi South 20.7 mph 31.1 mph N/A   Mostly Cloudy
5:15 PM 78.8 °F 37.4 °F 23% 29.60 in 10.0 mi SSW 24.2 mph 31.1 mph N/A   Scattered Clouds
5:35 PM 78.3 °F 37.0 °F 23% 29.61 in 10.0 mi SSW 18.4 mph 28.8 mph N/A   Clear
5:55 PM 77.5 °F 34.3 °F 21% 29.62 in 10.0 mi SSW 23.0 mph 29.9 mph N/A   Clear
6:15 PM 76.1 °F 38.1 °F 25% 29.64 in 10.0 mi WSW 17.3 mph 28.8 mph N/A   Scattered Clouds
6:35 PM 73.6 °F 40.8 °F 31% 29.66 in 10.0 mi SW 16.1 mph 23.0 mph N/A   Clear
6:55 PM 70.7 °F 43.5 °F 37% 29.68 in 10.0 mi WSW 12.7 mph 17.3 mph N/A   Clear
7:15 PM 69.4 °F 43.3 °F 39% 29.69 in 10.0 mi SW 11.5 mph 21.9 mph N/A   Clear
7:35 PM 68.7 °F 43.3 °F 40% 29.71 in 10.0 mi WSW 10.4 mph 19.6 mph N/A   Clear
7:55 PM 66.9 °F 44.1 °F 44% 29.73 in 10.0 mi WSW 15.0 mph 20.7 mph N/A   Clear
8:15 PM 64.2 °F 44.6 °F 49% 29.75 in 10.0 mi WSW 13.8 mph 19.6 mph N/A   Clear
8:35 PM 63.0 °F 44.4 °F 51% 29.76 in 10.0 mi West 12.7 mph 20.7 mph N/A   Clear
8:55 PM 61.5 °F 43.9 °F 52% 29.77 in 10.0 mi West 15.0 mph 21.9 mph N/A   Clear
9:15 PM 59.2 °F 42.1 °F 53% 29.79 in 10.0 mi West 16.1 mph 25.3 mph N/A   Clear
9:35 PM 57.9 °F 42.3 °F 56% 29.81 in 10.0 mi West 15.0 mph 20.7 mph N/A   Scattered Clouds
9:55 PM 56.8 °F 42.4 °F 59% 29.81 in 10.0 mi WSW 11.5 mph 18.4 mph N/A   Clear
10:15 PM 56.3 °F 42.3 °F 59% 29.82 in 10.0 mi West 11.5 mph - N/A   Clear
10:35 PM 55.4 °F 41.7 °F 60% 29.83 in 10.0 mi West 10.4 mph - N/A   Clear
10:55 PM 54.9 °F 41.4 °F 60% 29.84 in 10.0 mi West 6.9 mph - N/A   Clear
11:15 PM 54.1 °F 41.4 °F 62% 29.84 in 10.0 mi WSW 6.9 mph - N/A   Clear
11:35 PM 53.6 °F 41.5 °F 64% 29.83 in 10.0 mi West 8.1 mph - N/A   Clear
11:55 PM 53.1 °F 41.4 °F 64% 29.84 in 10.0 mi WSW 5.8 mph - N/A   Clear